| time (UTC) | temp F | wind direction | speed MPH | gust MPH | rain 1hr in | rain 24hr in | rain mn in | humidity % | barometer mb |
| 20260507043056 | 45 | 11 | 0.0 | 0.0 | 0.00 | 0.01 | 0.01 | 81 | 1021.5 |
| 20260507041551 | 45 | 11 | 0.0 | 0.0 | 0.00 | 0.01 | 0.01 | 81 | 1021.5 |
| 20260507040049 | 46 | 11 | 0.0 | 0.0 | 0.00 | 0.01 | 0.01 | 80 | 1021.4 |
| 20260507034553 | 46 | 341 | 0.0 | 0.0 | 0.00 | 0.01 | 0.01 | 79 | 1021.2 |
| 20260507033048 | 47 | 341 | 0.0 | 0.0 | 0.00 | 0.01 | 0.01 | 78 | 1021.2 |
| 20260507031548 | 47 | 341 | 0.0 | 0.0 | 0.00 | 0.01 | 0.01 | 78 | 1021.2 |
| 20260507030053 | 48 | 341 | 0.0 | 0.0 | 0.00 | 0.01 | 0.01 | 77 | 1020.9 |
| 20260507024553 | 49 | 341 | 0.0 | 0.0 | 0.00 | 0.01 | 0.01 | 77 | 1020.7 |
| 20260507023045 | 49 | 341 | 0.0 | 0.0 | 0.00 | 0.01 | 0.01 | 76 | 1020.5 |
| 20260507021544 | 50 | 341 | 0.0 | 0.0 | 0.00 | 0.01 | 0.01 | 74 | 1020.6 |
| 20260507020049 | 51 | 341 | 0.0 | 0.0 | 0.00 | 0.01 | 0.01 | 73 | 1020.4 |
| 20260507014544 | 53 | 341 | 0.0 | 0.0 | 0.00 | 0.01 | 0.01 | 71 | 1020.3 |
| 20260507013055 | 54 | 341 | 0.0 | 0.0 | 0.00 | 0.01 | 0.01 | 68 | 1020.1 |
| 20260507011544 | 55 | 341 | 0.0 | 0.0 | 0.00 | 0.01 | 0.01 | 66 | 1020.0 |
| 20260507010044 | 57 | 341 | 0.0 | 0.0 | 0.00 | 0.01 | 0.01 | 62 | 1019.9 |
| 20260507004541 | 58 | 341 | 0.0 | 1.0 | 0.00 | 0.01 | 0.01 | 57 | 1019.8 |
| 20260507003044 | 59 | 341 | 0.0 | 1.0 | 0.00 | 0.01 | 0.01 | 55 | 1019.8 |
| 20260507001543 | 60 | 341 | 0.0 | 1.0 | 0.00 | 0.01 | 0.01 | 53 | 1019.7 |
| 20260507000043 | 61 | 69 | 0.0 | 1.0 | 0.00 | 0.01 | 0.01 | 52 | 1019.7 |
| 20260506234542 | 61 | 69 | 0.0 | 1.0 | 0.00 | 0.01 | 0.01 | 51 | 1019.5 |
| 20260506233038 | 63 | 14 | 0.0 | 2.0 | 0.00 | 0.01 | 0.01 | 48 | 1019.4 |
| 20260506231542 | 65 | 70 | 0.0 | 2.0 | 0.00 | 0.01 | 0.01 | 47 | 1019.4 |
| 20260506230037 | 64 | 37 | 0.0 | 1.0 | 0.00 | 0.01 | 0.01 | 49 | 1019.0 |
| 20260506224539 | 64 | 16 | 0.0 | 5.0 | 0.00 | 0.01 | 0.01 | 48 | 1018.6 |
| 20260506223032 | 63 | 357 | 0.0 | 3.0 | 0.00 | 0.01 | 0.01 | 51 | 1018.5 |
| 20260506221529 | 62 | 85 | 0.0 | 2.0 | 0.00 | 0.01 | 0.01 | 53 | 1018.4 |
| 20260506220034 | 61 | 342 | 0.0 | 2.0 | 0.00 | 0.01 | 0.01 | 53 | 1018.5 |
| 20260506214528 | 61 | 346 | 0.0 | 2.0 | 0.00 | 0.01 | 0.01 | 52 | 1018.7 |
| 20260506213027 | 61 | 24 | 0.0 | 3.0 | 0.00 | 0.01 | 0.01 | 54 | 1018.9 |
| 20260506211531 | 61 | 54 | 0.0 | 0.0 | 0.00 | 0.01 | 0.01 | 54 | 1018.9 |
| 20260506210027 | 60 | 346 | 0.0 | 0.0 | 0.00 | 0.01 | 0.01 | 57 | 1019.1 |
| 20260506204526 | 61 | 40 | 0.0 | 0.0 | 0.00 | 0.01 | 0.01 | 56 | 1019.3 |
| 20260506203125 | 61 | 344 | 0.0 | 3.0 | 0.00 | 0.01 | 0.01 | 55 | 1019.6 |
| 20260506201524 | 61 | 37 | 0.0 | 3.0 | 0.00 | 0.01 | 0.01 | 56 | 1019.6 |
| 20260506200022 | 60 | 351 | 0.0 | 3.0 | 0.00 | 0.01 | 0.01 | 56 | 1019.9 |
| 20260506194522 | 61 | 13 | 1.0 | 7.0 | 0.00 | 0.01 | 0.01 | 56 | 1020.0 |
| 20260506193021 | 62 | 344 | 0.0 | 2.0 | 0.00 | 0.01 | 0.01 | 54 | 1019.9 |
| 20260506191519 | 62 | 341 | 0.0 | 2.0 | 0.00 | 0.01 | 0.01 | 57 | 1019.9 |
| 20260506190019 | 61 | 336 | 0.0 | 5.0 | 0.00 | 0.01 | 0.01 | 54 | 1020.1 |
| 20260506184520 | 61 | 310 | 0.0 | 4.0 | 0.00 | 0.01 | 0.01 | 56 | 1020.1 |
| 20260506183013 | 59 | 310 | 0.0 | 3.0 | 0.00 | 0.01 | 0.01 | 59 | 1020.5 |
| 20260506181508 | 58 | 303 | 0.0 | 2.0 | 0.00 | 0.01 | 0.01 | 63 | 1020.9 |
| 20260506180007 | 57 | 357 | 0.0 | 2.0 | 0.00 | 0.01 | 0.01 | 61 | 1021.2 |
| 20260506174507 | 58 | 314 | 0.0 | 0.0 | 0.00 | 0.01 | 0.01 | 62 | 1021.5 |
| 20260506173005 | 58 | 267 | 0.0 | 0.0 | 0.00 | 0.01 | 0.01 | 62 | 1021.7 |
| 20260506171511 | 58 | 174 | 0.0 | 1.0 | 0.00 | 0.01 | 0.01 | 62 | 1021.6 |
| 20260506170003 | 57 | 356 | 0.0 | 3.0 | 0.00 | 0.01 | 0.01 | 62 | 1021.6 |
| 20260506164603 | 56 | 59 | 0.0 | 2.0 | 0.00 | 0.01 | 0.01 | 64 | 1021.3 |
| 20260506163105 | 56 | 14 | 0.0 | 2.0 | 0.00 | 0.01 | 0.01 | 65 | 1021.2 |
| 20260506161603 | 55 | 63 | 0.0 | 2.0 | 0.00 | 0.01 | 0.01 | 64 | 1020.8 |
| 20260506160048 | 54 | 347 | 0.0 | 4.0 | 0.00 | 0.01 | 0.01 | 68 | 1020.3 |
| 20260506154606 | 53 | 21 | 0.0 | 2.0 | 0.00 | 0.01 | 0.01 | 71 | 1020.2 |
| 20260506153042 | 52 | 4 | 0.0 | 2.0 | 0.00 | 0.01 | 0.01 | 72 | 1020.5 |
| 20260506151538 | 52 | 35 | 0.0 | 2.0 | 0.00 | 0.01 | 0.01 | 74 | 1020.2 |
| 20260506150035 | 51 | 336 | 0.0 | 3.0 | 0.00 | 0.01 | 0.01 | 76 | 1020.0 |
| 20260506144536 | 51 | 348 | 0.0 | 2.0 | 0.00 | 0.01 | 0.01 | 77 | 1020.3 |
| 20260506143033 | 50 | 27 | 0.0 | 1.0 | 0.00 | 0.01 | 0.01 | 76 | 1020.3 |
| 20260506141528 | 50 | 31 | 0.0 | 2.0 | 0.00 | 0.01 | 0.01 | 77 | 1020.1 |
| 20260506140029 | 49 | 341 | 0.0 | 2.0 | 0.00 | 0.01 | 0.01 | 78 | 1020.1 |
| 20260506134525 | 49 | 337 | 0.0 | 1.0 | 0.00 | 0.01 | 0.01 | 80 | 1020.0 |
| 20260506133039 | 48 | 76 | 0.0 | 2.0 | 0.00 | 0.01 | 0.01 | 81 | 1020.1 |
| 20260506131528 | 48 | 346 | 0.0 | 1.0 | 0.00 | 0.01 | 0.01 | 83 | 1020.0 |
| 20260506130016 | 47 | 351 | 0.0 | 2.0 | 0.00 | 0.01 | 0.01 | 84 | 1019.9 |
| 20260506124514 | 47 | 353 | 0.0 | 2.0 | 0.00 | 0.01 | 0.01 | 85 | 1019.6 |
| 20260506123013 | 47 | 16 | 0.0 | 3.0 | 0.00 | 0.01 | 0.01 | 85 | 1019.7 |
| 20260506121510 | 46 | 341 | 0.0 | 2.0 | 0.00 | 0.01 | 0.01 | 85 | 1019.5 |
| 20260506120015 | 46 | 49 | 0.0 | 1.0 | 0.00 | 0.01 | 0.01 | 85 | 1019.2 |
| 20260506114509 | 46 | 12 | 0.0 | 1.0 | 0.00 | 0.01 | 0.01 | 85 | 1019.1 |
| 20260506113011 | 46 | 348 | 0.0 | 1.0 | 0.00 | 0.01 | 0.01 | 85 | 1019.3 |
| 20260506111506 | 46 | 108 | 0.0 | 1.0 | 0.00 | 0.01 | 0.01 | 85 | 1018.8 |
| 20260506110004 | 46 | 345 | 0.0 | 1.0 | 0.00 | 0.02 | 0.01 | 85 | 1018.7 |
| 20260506104506 | 46 | 346 | 0.0 | 1.0 | 0.00 | 0.02 | 0.01 | 85 | 1018.5 |
| 20260506103107 | 46 | 353 | 0.0 | 1.0 | 0.00 | 0.02 | 0.01 | 85 | 1017.9 |
| 20260506101559 | 46 | 353 | 0.0 | 1.0 | 0.00 | 0.02 | 0.01 | 85 | 1017.7 |
| 20260506100059 | 46 | 32 | 0.0 | 1.0 | 0.00 | 0.02 | 0.01 | 85 | 1016.8 |
| 20260506094553 | 46 | 343 | 0.0 | 1.0 | 0.00 | 0.03 | 0.01 | 86 | 1016.6 |
| 20260506093051 | 46 | 339 | 0.0 | 1.0 | 0.00 | 0.03 | 0.01 | 87 | 1016.3 |
| 20260506091554 | 46 | 12 | 0.0 | 1.0 | 0.00 | 0.03 | 0.01 | 87 | 1016.2 |
| 20260506090050 | 46 | 18 | 0.0 | 1.0 | 0.00 | 0.03 | 0.01 | 87 | 1016.0 |
| 20260506084553 | 46 | 46 | 0.0 | 1.0 | 0.00 | 0.28 | 0.01 | 88 | 1016.2 |
| 20260506083051 | 46 | 46 | 0.0 | 0.0 | 0.00 | 0.28 | 0.01 | 88 | 1016.2 |
| 20260506081549 | 46 | 46 | 0.0 | 1.0 | 0.00 | 0.28 | 0.01 | 88 | 1015.9 |
| 20260506073047 | 46 | 45 | 0.0 | 1.0 | 0.01 | 1.04 | 0.01 | 90 | 1015.1 |
| 20260506071545 | 46 | 52 | 0.0 | 2.0 | 0.01 | 1.04 | 0.01 | 90 | 1014.8 |
| 20260506061541 | 47 | 7 | 0.0 | 2.0 | 0.00 | 1.25 | 0.00 | 90 | 1015.4 |
| 20260506044518 | 47 | 350 | 0.0 | 1.0 | 0.00 | 1.32 | 1.32 | 89 | 1015.4 |